Location: Kirchberg
(47.4114°N, 9.0398°E)
Time: 07:46:17
(UTC+00:00)

Cosmos 1992 Rocket - Pass Details

Date: 03 March 2021
Orbit: 759 x 765 km, 74.0° (Epoch: 12 April)

Event Time Altitude Azimuth Distance (km) Brightness Sun altitude
Rises 17:47:23 0° 182° (S) 3,216 7.3 -6.8°
Reaches altitude 10° 17:49:50 10° 176° (S) 2,295 6.5 -7.2°
Maximum altitude 17:54:46 45° 105° (ESE) 1,036 4.3 -8.0°
Drops below altitude 10° 17:59:43 10° 33° (NNE) 2,308 6.2 -8.9°
Sets 18:02:11 0° 28° (NNE) 3,238 7.0 -9.3°
